date,time,SUV Intensity [MED/Hr],UV Index,Daily total [MED],Since Last [MED]
29/09/2023,00:01:49,0.000,0.0,0.0,0.0
29/09/2023,00:02:49,-0.000,0.0,0.0,0.0
29/09/2023,00:03:49,0.000,0.0,0.0,0.0
29/09/2023,00:04:50,0.000,0.0,0.0,0.0
29/09/2023,00:05:50,0.001,0.0,0.0,0.0
29/09/2023,00:06:49,-0.002,0.0,0.0,0.0
29/09/2023,00:07:49,0.000,0.0,0.0,0.0
29/09/2023,00:08:49,0.000,0.0,0.0,0.0
29/09/2023,00:09:49,-0.001,0.0,0.0,0.0
29/09/2023,00:10:50,0.000,0.0,0.0,0.0
29/09/2023,00:11:49,0.000,0.0,0.0,0.0
29/09/2023,00:12:49,0.000,0.0,0.0,0.0
29/09/2023,00:13:49,0.001,0.0,0.0,0.0
29/09/2023,00:14:50,0.001,0.0,0.0,0.0
29/09/2023,00:15:49,0.000,0.0,0.0,0.0
29/09/2023,00:16:49,0.000,0.0,0.0,0.0
29/09/2023,00:17:49,-0.000,0.0,0.0,0.0
29/09/2023,00:18:49,0.000,0.0,0.0,0.0
29/09/2023,00:19:49,0.000,0.0,0.0,0.0
29/09/2023,00:20:49,0.000,0.0,0.0,0.0
29/09/2023,00:21:49,0.000,0.0,0.0,0.0
29/09/2023,00:22:50,0.001,0.0,0.0,0.0
29/09/2023,00:23:50,0.000,0.0,0.0,0.0
29/09/2023,00:24:50,0.001,0.0,0.0,0.0
29/09/2023,00:25:49,-0.000,0.0,0.0,0.0
29/09/2023,00:26:49,0.000,0.0,0.0,0.0
29/09/2023,00:27:50,0.000,0.0,0.0,0.0
29/09/2023,00:28:50,0.000,0.0,0.0,0.0
29/09/2023,00:29:49,-0.001,0.0,0.0,0.0
29/09/2023,00:30:49,0.000,0.0,0.0,0.0
29/09/2023,00:31:49,0.000,0.0,0.0,0.0
29/09/2023,00:32:49,0.001,0.0,0.0,0.0
29/09/2023,00:33:49,0.000,0.0,0.0,0.0
29/09/2023,00:34:50,0.000,0.0,0.0,0.0
29/09/2023,00:35:50,0.000,0.0,0.0,0.0
29/09/2023,00:36:50,0.000,0.0,0.0,0.0
29/09/2023,00:37:49,-0.000,0.0,0.0,0.0
29/09/2023,00:38:49,0.001,0.0,0.0,0.0
29/09/2023,00:39:50,0.001,0.0,0.0,0.0
29/09/2023,00:40:49,0.001,0.0,0.0,0.0
29/09/2023,00:41:49,0.000,0.0,0.0,0.0
29/09/2023,00:42:49,0.001,0.0,0.0,0.0
29/09/2023,00:43:49,0.000,0.0,0.0,0.0
29/09/2023,00:44:50,0.000,0.0,0.0,0.0
29/09/2023,00:45:50,0.000,0.0,0.0,0.0
29/09/2023,00:46:49,0.000,0.0,0.0,0.0
29/09/2023,00:47:49,0.001,0.0,0.0,0.0
29/09/2023,00:48:50,0.000,0.0,0.0,0.0
29/09/2023,00:49:47,0.000,0.0,0.0,0.0
29/09/2023,00:50:47,0.000,0.0,0.0,0.0
29/09/2023,00:51:49,0.001,0.0,0.0,0.0
29/09/2023,00:52:49,0.001,0.0,0.0,0.0
29/09/2023,00:53:50,0.000,0.0,0.0,0.0
29/09/2023,00:54:50,0.000,0.0,0.0,0.0
29/09/2023,00:55:50,0.000,0.0,0.0,0.0
29/09/2023,00:56:49,0.000,0.0,0.0,0.0
29/09/2023,00:57:50,0.000,0.0,0.0,0.0
29/09/2023,00:58:50,0.000,0.0,0.0,0.0
29/09/2023,00:59:50,0.000,0.0,0.0,0.0
29/09/2023,01:00:50,0.000,0.0,0.0,0.0
29/09/2023,01:01:50,0.000,0.0,0.0,0.0
29/09/2023,01:02:49,0.000,0.0,0.0,0.0
29/09/2023,01:03:49,0.001,0.0,0.0,0.0
29/09/2023,01:04:49,0.000,0.0,0.0,0.0
29/09/2023,01:05:50,0.000,0.0,0.0,0.0
29/09/2023,01:06:50,0.001,0.0,0.0,0.0
29/09/2023,01:07:49,0.001,0.0,0.0,0.0
29/09/2023,01:08:49,0.000,0.0,0.0,0.0
29/09/2023,01:09:49,0.000,0.0,0.0,0.0
29/09/2023,01:10:50,0.000,0.0,0.0,0.0
29/09/2023,01:11:49,0.001,0.0,0.0,0.0
29/09/2023,01:12:50,0.000,0.0,0.0,0.0
29/09/2023,01:13:50,0.000,0.0,0.0,0.0
29/09/2023,01:14:50,-0.000,0.0,0.0,0.0
29/09/2023,01:15:50,0.000,0.0,0.0,0.0
29/09/2023,01:16:50,0.000,0.0,0.0,0.0
29/09/2023,01:17:50,0.000,0.0,0.0,0.0
29/09/2023,01:18:50,0.001,0.0,0.0,0.0
29/09/2023,01:19:53,0.001,0.0,0.0,0.0
29/09/2023,01:20:50,0.001,0.0,0.0,0.0
29/09/2023,01:21:50,0.000,0.0,0.0,0.0
29/09/2023,01:22:50,0.001,0.0,0.0,0.0
29/09/2023,01:23:50,0.000,0.0,0.0,0.0
29/09/2023,01:24:49,0.000,0.0,0.0,0.0
29/09/2023,01:25:49,0.001,0.0,0.0,0.0
29/09/2023,01:26:49,0.001,0.0,0.0,0.0
29/09/2023,01:27:50,0.001,0.0,0.0,0.0
29/09/2023,01:28:49,-0.001,0.0,0.0,0.0
29/09/2023,01:29:49,0.001,0.0,0.0,0.0
29/09/2023,01:30:50,-0.000,0.0,0.0,0.0
29/09/2023,01:31:50,0.001,0.0,0.0,0.0
29/09/2023,01:32:49,0.001,0.0,0.0,0.0
29/09/2023,01:33:49,0.000,0.0,0.0,0.0
29/09/2023,01:34:49,0.000,0.0,0.0,0.0
29/09/2023,01:35:50,0.000,0.0,0.0,0.0
29/09/2023,01:36:50,0.000,0.0,0.0,0.0
29/09/2023,01:37:49,0.000,0.0,0.0,0.0
29/09/2023,01:38:49,0.001,0.0,0.0,0.0
29/09/2023,01:39:49,0.000,0.0,0.0,0.0
29/09/2023,01:40:49,0.000,0.0,0.0,0.0
29/09/2023,01:41:50,0.001,0.0,0.0,0.0
29/09/2023,01:42:49,0.001,0.0,0.0,0.0
29/09/2023,01:43:49,-0.000,0.0,0.0,0.0
29/09/2023,01:44:49,0.001,0.0,0.0,0.0
29/09/2023,01:45:50,0.000,0.0,0.0,0.0
29/09/2023,01:46:50,0.000,0.0,0.0,0.0
29/09/2023,01:47:50,0.000,0.0,0.0,0.0
29/09/2023,01:48:50,0.001,0.0,0.0,0.0
29/09/2023,01:49:50,0.001,0.0,0.0,0.0
29/09/2023,01:50:50,0.000,0.0,0.0,0.0
29/09/2023,01:51:49,0.000,0.0,0.0,0.0
29/09/2023,01:52:49,0.001,0.0,0.0,0.0
29/09/2023,01:53:49,0.000,0.0,0.0,0.0
29/09/2023,01:54:50,0.001,0.0,0.0,0.0
29/09/2023,01:55:50,0.000,0.0,0.0,0.0
29/09/2023,01:56:49,0.000,0.0,0.0,0.0
29/09/2023,01:57:49,0.000,0.0,0.0,0.0
29/09/2023,01:58:50,0.001,0.0,0.0,0.0
29/09/2023,01:59:49,0.001,0.0,0.0,0.0
29/09/2023,02:00:50,0.000,0.0,0.0,0.0
29/09/2023,02:01:49,0.001,0.0,0.0,0.0
29/09/2023,02:02:49,0.000,0.0,0.0,0.0
29/09/2023,02:03:49,0.000,0.0,0.0,0.0
29/09/2023,02:04:50,0.000,0.0,0.0,0.0
29/09/2023,02:05:49,0.000,0.0,0.0,0.0
29/09/2023,02:06:49,0.001,0.0,0.0,0.0
29/09/2023,02:07:49,0.001,0.0,0.0,0.0
29/09/2023,02:08:50,-0.000,0.0,0.0,0.0
29/09/2023,02:09:50,0.000,0.0,0.0,0.0
29/09/2023,02:10:50,0.000,0.0,0.0,0.0
29/09/2023,02:11:50,-0.001,0.0,0.0,0.0
29/09/2023,02:12:48,0.000,0.0,0.0,0.0
29/09/2023,02:13:47,0.000,0.0,0.0,0.0
29/09/2023,02:14:50,0.000,0.0,0.0,0.0
29/09/2023,02:15:50,0.000,0.0,0.0,0.0
29/09/2023,02:16:49,0.000,0.0,0.0,0.0
29/09/2023,02:17:49,0.000,0.0,0.0,0.0
29/09/2023,02:18:49,0.000,0.0,0.0,0.0
29/09/2023,02:19:50,0.000,0.0,0.0,0.0
29/09/2023,02:20:50,0.001,0.0,0.0,0.0
29/09/2023,02:21:50,0.001,0.0,0.0,0.0
29/09/2023,02:22:49,-0.000,0.0,0.0,0.0
29/09/2023,02:23:50,0.000,0.0,0.0,0.0
29/09/2023,02:24:50,0.001,0.0,0.0,0.0
29/09/2023,02:25:50,0.000,0.0,0.0,0.0
29/09/2023,02:26:49,-0.000,0.0,0.0,0.0
29/09/2023,02:27:49,0.000,0.0,0.0,0.0
29/09/2023,02:28:49,0.000,0.0,0.0,0.0
29/09/2023,02:29:50,0.001,0.0,0.0,0.0
29/09/2023,02:30:50,0.001,0.0,0.0,0.0
29/09/2023,02:31:50,0.000,0.0,0.0,0.0
29/09/2023,02:32:49,0.000,0.0,0.0,0.0
29/09/2023,02:33:49,-0.000,0.0,0.0,0.0
29/09/2023,02:34:50,-0.001,0.0,0.0,0.0
29/09/2023,02:35:49,0.000,0.0,0.0,0.0
29/09/2023,02:36:49,0.001,0.0,0.0,0.0
29/09/2023,02:37:49,0.000,0.0,0.0,0.0
29/09/2023,02:38:49,0.001,0.0,0.0,0.0
29/09/2023,02:39:49,0.000,0.0,0.0,0.0
29/09/2023,02:40:50,0.000,0.0,0.0,0.0
29/09/2023,02:41:50,0.001,0.0,0.0,0.0
29/09/2023,02:42:49,0.001,0.0,0.0,0.0
29/09/2023,02:43:49,0.001,0.0,0.0,0.0
29/09/2023,02:44:48,0.000,0.0,0.0,0.0
29/09/2023,02:46:11,-0.001,0.0,0.0,0.0
29/09/2023,02:46:49,0.001,0.0,0.0,0.0
29/09/2023,02:47:50,0.000,0.0,0.0,0.0
29/09/2023,02:48:50,0.000,0.0,0.0,0.0
29/09/2023,02:49:50,0.000,0.0,0.0,0.0
29/09/2023,02:50:50,0.000,0.0,0.0,0.0
29/09/2023,02:51:49,0.001,0.0,0.0,0.0
29/09/2023,02:52:49,0.001,0.0,0.0,0.0
29/09/2023,02:53:50,0.000,0.0,0.0,0.0
29/09/2023,02:54:50,0.000,0.0,0.0,0.0
29/09/2023,02:55:51,0.000,0.0,0.0,0.0
29/09/2023,02:56:50,0.000,0.0,0.0,0.0
29/09/2023,02:57:49,0.001,0.0,0.0,0.0
29/09/2023,02:58:49,0.000,0.0,0.0,0.0
29/09/2023,02:59:50,0.001,0.0,0.0,0.0
29/09/2023,03:00:50,0.001,0.0,0.0,0.0
29/09/2023,03:01:50,0.000,0.0,0.0,0.0
29/09/2023,03:02:50,0.001,0.0,0.0,0.0
29/09/2023,03:03:49,0.000,0.0,0.0,0.0
29/09/2023,03:04:50,0.001,0.0,0.0,0.0
29/09/2023,03:05:50,0.000,0.0,0.0,0.0
29/09/2023,03:06:50,0.000,0.0,0.0,0.0
29/09/2023,03:07:50,0.001,0.0,0.0,0.0
29/09/2023,03:08:49,0.000,0.0,0.0,0.0
29/09/2023,03:09:49,0.001,0.0,0.0,0.0
29/09/2023,03:10:50,0.001,0.0,0.0,0.0
29/09/2023,03:11:50,0.001,0.0,0.0,0.0
29/09/2023,03:12:50,0.001,0.0,0.0,0.0
29/09/2023,03:13:50,0.001,0.0,0.0,0.0
29/09/2023,03:14:50,0.001,0.0,0.0,0.0
29/09/2023,03:15:49,0.001,0.0,0.0,0.0
29/09/2023,03:16:50,0.000,0.0,0.0,0.0
29/09/2023,03:17:50,0.000,0.0,0.0,0.0
29/09/2023,03:18:50,0.001,0.0,0.0,0.0
29/09/2023,03:19:50,0.001,0.0,0.0,0.0
29/09/2023,03:20:50,0.000,0.0,0.0,0.0
29/09/2023,03:21:50,-0.000,0.0,0.0,0.0
29/09/2023,03:22:50,0.000,0.0,0.0,0.0
29/09/2023,03:23:50,0.001,0.0,0.0,0.0
29/09/2023,03:24:49,0.001,0.0,0.0,0.0
29/09/2023,03:25:50,0.001,0.0,0.0,0.0
29/09/2023,03:26:50,0.001,0.0,0.0,0.0
29/09/2023,03:27:49,0.001,0.0,0.0,0.0
29/09/2023,03:28:50,0.001,0.0,0.0,0.0
29/09/2023,03:29:50,0.001,0.0,0.0,0.0
29/09/2023,03:30:50,0.001,0.0,0.0,0.0
29/09/2023,03:31:49,0.001,0.0,0.0,0.0
29/09/2023,03:32:49,0.001,0.0,0.0,0.0
29/09/2023,03:33:49,0.001,0.0,0.0,0.0
29/09/2023,03:34:50,0.001,0.0,0.0,0.0
29/09/2023,03:35:50,0.001,0.0,0.0,0.0
29/09/2023,03:36:50,0.000,0.0,0.0,0.0
29/09/2023,03:37:50,0.001,0.0,0.0,0.0
29/09/2023,03:38:50,0.001,0.0,0.0,0.0
29/09/2023,03:39:49,0.001,0.0,0.0,0.0
29/09/2023,03:40:50,0.001,0.0,0.0,0.0
29/09/2023,03:41:50,0.001,0.0,0.0,0.0
29/09/2023,03:42:50,0.001,0.0,0.0,0.0
29/09/2023,03:43:50,0.002,0.0,0.0,0.0
29/09/2023,03:44:49,0.000,0.0,0.0,0.0
29/09/2023,03:45:50,0.001,0.0,0.0,0.0
29/09/2023,03:46:49,0.001,0.0,0.0,0.0
29/09/2023,03:47:50,0.002,0.0,0.0,0.0
29/09/2023,03:48:50,0.001,0.0,0.0,0.0
29/09/2023,03:49:49,0.001,0.0,0.0,0.0
29/09/2023,03:50:50,0.001,0.0,0.0,0.0
29/09/2023,03:51:50,0.001,0.0,0.0,0.0
29/09/2023,03:52:50,0.002,0.0,0.0,0.0
29/09/2023,03:53:49,0.001,0.0,0.0,0.0
29/09/2023,03:54:49,0.001,0.0,0.0,0.0
29/09/2023,03:55:49,0.001,0.0,0.0,0.0
29/09/2023,03:56:50,0.001,0.0,0.0,0.0
29/09/2023,03:57:50,0.001,0.0,0.0,0.0
29/09/2023,03:58:50,0.001,0.0,0.0,0.0
29/09/2023,03:59:50,0.000,0.0,0.0,0.0
29/09/2023,04:00:50,0.001,0.0,0.0,0.0
29/09/2023,04:01:50,0.001,0.0,0.0,0.0
29/09/2023,04:02:50,0.002,0.0,0.0,0.0
29/09/2023,04:03:50,0.001,0.0,0.0,0.0
29/09/2023,04:04:50,0.002,0.0,0.0,0.0
29/09/2023,04:05:50,0.002,0.0,0.0,0.0
29/09/2023,04:06:50,0.001,0.0,0.0,0.0
29/09/2023,04:07:49,0.001,0.0,0.0,0.0
29/09/2023,04:08:49,0.001,0.0,0.0,0.0
29/09/2023,04:09:49,0.002,0.0,0.0,0.0
29/09/2023,04:10:50,0.001,0.0,0.0,0.0
29/09/2023,04:11:50,0.001,0.0,0.0,0.0
29/09/2023,04:12:49,0.001,0.0,0.0,0.0
29/09/2023,04:13:50,0.001,0.0,0.0,0.0
29/09/2023,04:14:49,0.002,0.0,0.0,0.0
29/09/2023,04:15:50,0.001,0.0,0.0,0.0
29/09/2023,04:16:50,0.001,0.0,0.0,0.0
29/09/2023,04:17:50,0.001,0.0,0.0,0.0
29/09/2023,04:18:50,0.001,0.0,0.0,0.0
29/09/2023,04:19:50,0.001,0.0,0.0,0.0
29/09/2023,04:20:50,0.001,0.0,0.0,0.0
29/09/2023,04:21:49,0.001,0.0,0.0,0.0
29/09/2023,04:22:50,0.001,0.0,0.0,0.0
29/09/2023,04:23:50,0.001,0.0,0.0,0.0
29/09/2023,04:24:49,0.000,0.0,0.0,0.0
29/09/2023,04:25:49,0.001,0.0,0.0,0.0
29/09/2023,04:26:50,0.001,0.0,0.0,0.0
29/09/2023,04:27:47,0.001,0.0,0.0,0.0
29/09/2023,04:28:48,0.001,0.0,0.0,0.0
29/09/2023,04:29:49,0.001,0.0,0.0,0.0
29/09/2023,04:30:50,0.001,0.0,0.0,0.0
29/09/2023,04:31:49,0.001,0.0,0.0,0.0
29/09/2023,04:32:50,0.002,0.0,0.0,0.0
29/09/2023,04:33:50,0.001,0.0,0.0,0.0
29/09/2023,04:34:50,0.002,0.0,0.0,0.0
29/09/2023,04:35:50,0.001,0.0,0.0,0.0
29/09/2023,04:36:49,0.001,0.0,0.0,0.0
29/09/2023,04:37:50,0.000,0.0,0.0,0.0
29/09/2023,04:38:50,0.001,0.0,0.0,0.0
29/09/2023,04:39:49,0.001,0.0,0.0,0.0
29/09/2023,04:40:50,0.001,0.0,0.0,0.0
29/09/2023,04:41:50,0.001,0.0,0.0,0.0
29/09/2023,04:42:49,0.002,0.0,0.0,0.0
29/09/2023,04:43:49,0.001,0.0,0.0,0.0
29/09/2023,04:44:50,0.002,0.0,0.0,0.0
29/09/2023,04:45:50,0.001,0.0,0.0,0.0
29/09/2023,04:46:50,0.001,0.0,0.0,0.0
29/09/2023,04:47:49,0.001,0.0,0.0,0.0
29/09/2023,04:48:49,0.001,0.0,0.0,0.0
29/09/2023,04:49:50,0.002,0.0,0.0,0.0
29/09/2023,04:50:50,0.001,0.0,0.0,0.0
29/09/2023,04:51:50,0.002,0.0,0.0,0.0
29/09/2023,04:52:50,0.001,0.0,0.0,0.0
29/09/2023,04:53:49,0.001,0.0,0.0,0.0
29/09/2023,04:54:49,0.001,0.0,0.0,0.0
29/09/2023,04:55:50,0.001,0.0,0.0,0.0
29/09/2023,04:56:50,0.001,0.0,0.0,0.0
29/09/2023,04:57:50,0.002,0.0,0.0,0.0
29/09/2023,04:58:50,0.002,0.0,0.0,0.0
29/09/2023,04:59:50,0.002,0.0,0.0,0.0
29/09/2023,05:00:49,0.002,0.0,0.0,0.0
29/09/2023,05:01:50,0.001,0.0,0.0,0.0
29/09/2023,05:02:50,0.001,0.0,0.0,0.0
29/09/2023,05:03:50,0.002,0.0,0.0,0.0
29/09/2023,05:04:51,0.001,0.0,0.0,0.0
29/09/2023,05:05:49,0.001,0.0,0.0,0.0
29/09/2023,05:06:49,0.001,0.0,0.0,0.0
29/09/2023,05:07:50,0.002,0.0,0.0,0.0
29/09/2023,05:08:50,0.001,0.0,0.0,0.0
29/09/2023,05:09:50,0.001,0.0,0.0,0.0
29/09/2023,05:10:50,0.001,0.0,0.0,0.0
29/09/2023,05:11:50,0.001,0.0,0.0,0.0
29/09/2023,05:12:50,0.001,0.0,0.0,0.0
29/09/2023,05:13:49,0.001,0.0,0.0,0.0
29/09/2023,05:14:50,0.000,0.0,0.0,0.0
29/09/2023,05:15:50,0.001,0.0,0.0,0.0
29/09/2023,05:16:50,0.001,0.0,0.0,0.0
29/09/2023,05:17:50,0.001,0.0,0.0,0.0
29/09/2023,05:18:50,0.001,0.0,0.0,0.0
29/09/2023,05:19:50,0.001,0.0,0.0,0.0
29/09/2023,05:20:50,0.001,0.0,0.0,0.0
29/09/2023,05:21:50,0.002,0.0,0.0,0.0
29/09/2023,05:22:50,0.001,0.0,0.0,0.0
29/09/2023,05:23:50,0.001,0.0,0.0,0.0
29/09/2023,05:24:50,0.001,0.0,0.0,0.0
29/09/2023,05:25:50,0.002,0.0,0.0,0.0
29/09/2023,05:26:50,0.001,0.0,0.0,0.0
29/09/2023,05:27:49,0.001,0.0,0.0,0.0
29/09/2023,05:28:50,0.001,0.0,0.0,0.0
29/09/2023,05:29:50,0.001,0.0,0.0,0.0
29/09/2023,05:30:50,0.002,0.0,0.0,0.0
29/09/2023,05:31:50,0.001,0.0,0.0,0.0
29/09/2023,05:32:49,0.001,0.0,0.0,0.0
29/09/2023,05:33:50,0.001,0.0,0.0,0.0
29/09/2023,05:34:50,0.001,0.0,0.0,0.0
29/09/2023,05:35:50,0.002,0.0,0.0,0.0
29/09/2023,05:36:50,0.001,0.0,0.0,0.0
29/09/2023,05:37:50,0.001,0.0,0.0,0.0
29/09/2023,05:38:49,0.001,0.0,0.0,0.0
29/09/2023,05:39:50,0.001,0.0,0.0,0.0
29/09/2023,05:40:50,0.001,0.0,0.0,0.0
29/09/2023,05:41:50,0.001,0.0,0.0,0.0
29/09/2023,05:42:50,0.002,0.0,0.0,0.0
29/09/2023,05:43:50,0.001,0.0,0.0,0.0
29/09/2023,05:44:50,0.001,0.0,0.0,0.0
29/09/2023,05:45:50,0.002,0.0,0.0,0.0
29/09/2023,05:46:50,0.001,0.0,0.0,0.0
29/09/2023,05:47:50,0.001,0.0,0.0,0.0
29/09/2023,05:48:50,0.001,0.0,0.0,0.0
29/09/2023,05:49:50,0.001,0.0,0.0,0.0
29/09/2023,05:50:50,0.002,0.0,0.0,0.0
29/09/2023,05:51:50,0.002,0.0,0.0,0.0
29/09/2023,05:52:49,0.002,0.0,0.0,0.0
29/09/2023,05:53:50,0.002,0.0,0.0,0.0
29/09/2023,05:54:49,0.002,0.0,0.0,0.0
29/09/2023,05:55:50,0.002,0.0,0.0,0.0
29/09/2023,05:56:50,0.002,0.0,0.0,0.0
29/09/2023,05:57:50,0.002,0.0,0.0,0.0
29/09/2023,05:58:50,0.002,0.0,0.0,0.0
29/09/2023,05:59:50,0.002,0.0,0.0,0.0
29/09/2023,06:00:50,0.002,0.0,0.0,0.0
29/09/2023,06:01:50,0.001,0.0,0.0,0.0
29/09/2023,06:02:48,0.001,0.0,0.0,0.0
29/09/2023,06:03:48,0.002,0.0,0.0,0.0
29/09/2023,06:04:50,0.003,0.0,0.0,0.0
29/09/2023,06:05:50,0.003,0.0,0.0,0.0
29/09/2023,06:06:50,0.003,0.0,0.0,0.0
29/09/2023,06:07:50,0.003,0.0,0.0,0.0
29/09/2023,06:08:50,0.004,0.0,0.0,0.0
29/09/2023,06:09:50,0.004,0.0,0.0,0.0
29/09/2023,06:10:52,0.004,0.0,0.0,0.0
29/09/2023,06:11:50,0.005,0.0,0.0,0.0
29/09/2023,06:12:50,0.004,0.0,0.0,0.0
29/09/2023,06:13:50,0.005,0.0,0.0,0.0
29/09/2023,06:14:50,0.005,0.0,0.0,0.0
29/09/2023,06:15:50,0.005,0.0,0.0,0.0
29/09/2023,06:16:49,0.005,0.0,0.0,0.0
29/09/2023,06:17:50,0.005,0.0,0.0,0.0
29/09/2023,06:18:50,0.005,0.0,0.0,0.0
29/09/2023,06:19:50,0.006,0.0,0.0,0.0
29/09/2023,06:20:50,0.005,0.0,0.0,0.0
29/09/2023,06:21:50,0.006,0.0,0.0,0.0
29/09/2023,06:22:48,0.006,0.0,0.0,0.0
29/09/2023,06:23:48,0.008,0.0,0.0,0.0
29/09/2023,06:24:50,0.008,0.0,0.0,0.0
29/09/2023,06:25:50,0.009,0.0,0.001,0.001
29/09/2023,06:26:49,0.009,0.0,0.001,0.0
29/09/2023,06:27:50,0.010,0.0,0.001,0.0
29/09/2023,06:28:50,0.011,0.0,0.001,0.0
29/09/2023,06:29:50,0.012,0.0,0.001,0.0
29/09/2023,06:30:50,0.012,0.0,0.001,0.0
29/09/2023,06:31:50,0.013,0.0,0.002,0.001
29/09/2023,06:32:50,0.013,0.0,0.002,0.0
29/09/2023,06:33:50,0.014,0.0,0.002,0.0
29/09/2023,06:34:50,0.015,0.0,0.002,0.0
29/09/2023,06:35:50,0.016,0.0,0.003,0.001
29/09/2023,06:36:50,0.016,0.0,0.003,0.0
29/09/2023,06:37:49,0.017,0.0,0.003,0.0
29/09/2023,06:38:50,0.017,0.0,0.003,0.0
29/09/2023,06:39:49,0.019,0.0,0.004,0.001
29/09/2023,06:40:48,0.019,0.0,0.004,0.0
29/09/2023,06:41:50,0.020,0.0,0.004,0.0
29/09/2023,06:42:50,0.020,0.0,0.005,0.001
29/09/2023,06:43:50,0.021,0.0,0.005,0.0
29/09/2023,06:44:50,0.022,0.0,0.005,0.0
29/09/2023,06:45:50,0.023,0.0,0.006,0.001
29/09/2023,06:46:50,0.023,0.0,0.006,0.0
29/09/2023,06:47:50,0.023,0.0,0.006,0.0
29/09/2023,06:48:49,0.025,0.0,0.007,0.001
29/09/2023,06:49:50,0.026,0.0,0.007,0.0
29/09/2023,06:50:50,0.026,0.0,0.008,0.001
29/09/2023,06:51:50,0.027,0.0,0.008,0.0
29/09/2023,06:52:50,0.028,0.0,0.009,0.001
29/09/2023,06:53:50,0.029,0.0,0.009,0.0
29/09/2023,06:54:50,0.031,0.0,0.01,0.001
29/09/2023,06:55:49,0.031,0.0,0.01,0.0
29/09/2023,06:56:50,0.032,0.0,0.011,0.001
29/09/2023,06:57:50,0.033,0.0,0.011,0.0
29/09/2023,06:58:50,0.034,0.0,0.012,0.001
29/09/2023,06:59:50,0.035,0.0,0.012,0.0
29/09/2023,07:00:50,0.036,0.0,0.013,0.001
29/09/2023,07:01:50,0.037,0.0,0.013,0.0
29/09/2023,07:02:50,0.038,0.0,0.014,0.001
29/09/2023,07:03:49,0.039,0.0,0.015,0.001
29/09/2023,07:04:50,0.040,0.0,0.015,0.0
29/09/2023,07:05:50,0.042,0.0,0.016,0.001
29/09/2023,07:06:50,0.042,0.0,0.017,0.001
29/09/2023,07:07:50,0.044,0.0,0.018,0.001
29/09/2023,07:08:50,0.046,0.0,0.018,0.0
29/09/2023,07:09:50,0.047,0.0,0.019,0.001
29/09/2023,07:10:50,0.048,0.0,0.02,0.001
29/09/2023,07:11:50,0.050,0.0,0.021,0.001
29/09/2023,07:12:50,0.050,0.0,0.021,0.0
29/09/2023,07:13:50,0.052,0.0,0.022,0.001
29/09/2023,07:14:50,0.053,0.0,0.023,0.001
29/09/2023,07:15:54,0.055,0.0,0.024,0.001
29/09/2023,07:16:49,0.056,0.0,0.025,0.001
29/09/2023,07:17:48,0.058,0.0,0.026,0.001
29/09/2023,07:18:50,0.059,0.0,0.027,0.001
29/09/2023,07:19:50,0.061,0.0,0.028,0.001
29/09/2023,07:20:50,0.062,0.0,0.029,0.001
29/09/2023,07:21:50,0.063,0.0,0.03,0.001
29/09/2023,07:22:50,0.064,0.0,0.031,0.001
29/09/2023,07:23:51,0.067,0.0,0.032,0.001
29/09/2023,07:24:50,0.068,0.0,0.033,0.001
29/09/2023,07:25:49,0.069,0.0,0.034,0.001
29/09/2023,07:26:50,0.072,0.0,0.036,0.002
29/09/2023,07:27:51,0.074,0.0,0.037,0.001
29/09/2023,07:28:50,0.075,0.0,0.038,0.001
29/09/2023,07:29:50,0.077,0.0,0.039,0.001
29/09/2023,07:30:50,0.079,0.0,0.041,0.002
29/09/2023,07:31:50,0.081,0.0,0.042,0.001
29/09/2023,07:32:50,0.083,0.0,0.043,0.001
29/09/2023,07:33:50,0.085,0.0,0.045,0.002
29/09/2023,07:34:50,0.087,0.0,0.046,0.001
29/09/2023,07:35:50,0.089,0.0,0.048,0.002
29/09/2023,07:36:50,0.091,0.0,0.049,0.001
29/09/2023,07:37:50,0.093,0.0,0.051,0.002
29/09/2023,07:38:50,0.095,0.0,0.052,0.001
29/09/2023,07:39:50,0.096,0.0,0.054,0.002
29/09/2023,07:40:50,0.100,0.0,0.055,0.001
29/09/2023,07:41:50,0.102,0.0,0.057,0.002
29/09/2023,07:42:50,0.104,0.0,0.059,0.002
29/09/2023,07:43:50,0.107,0.0,0.061,0.002
29/09/2023,07:44:50,0.108,0.0,0.062,0.001
29/09/2023,07:45:50,0.111,0.0,0.064,0.002
29/09/2023,07:46:50,0.112,0.0,0.066,0.002
29/09/2023,07:47:50,0.116,0.0,0.068,0.002
29/09/2023,07:48:50,0.118,0.0,0.07,0.002
29/09/2023,07:49:50,0.120,0.0,0.072,0.002
29/09/2023,07:50:50,0.123,0.0,0.074,0.002
29/09/2023,07:51:50,0.126,0.0,0.076,0.002
29/09/2023,07:52:50,0.127,0.0,0.078,0.002
29/09/2023,07:53:51,0.130,0.0,0.08,0.002
29/09/2023,07:54:48,0.132,0.0,0.082,0.002
29/09/2023,07:55:48,0.135,0.0,0.085,0.003
29/09/2023,07:56:50,0.138,0.0,0.087,0.002
29/09/2023,07:57:50,0.141,0.0,0.089,0.002
29/09/2023,07:58:50,0.143,0.0,0.092,0.003
29/09/2023,07:59:51,0.146,0.0,0.094,0.002
29/09/2023,08:00:50,0.149,0.0,0.096,0.002
29/09/2023,08:01:50,0.151,0.0,0.099,0.003
29/09/2023,08:02:50,0.155,0.0,0.102,0.003
29/09/2023,08:03:50,0.157,0.0,0.104,0.002
29/09/2023,08:04:50,0.160,0.0,0.107,0.003
29/09/2023,08:05:50,0.163,0.0,0.109,0.002
29/09/2023,08:06:50,0.166,0.0,0.112,0.003
29/09/2023,08:07:50,0.167,0.0,0.115,0.003
29/09/2023,08:08:50,0.171,0.0,0.118,0.003
29/09/2023,08:09:50,0.173,0.0,0.121,0.003
29/09/2023,08:11:19,0.178,0.0,0.125,0.004
29/09/2023,08:12:50,0.182,0.0,0.13,0.005
29/09/2023,08:13:50,0.186,0.0,0.133,0.003
29/09/2023,08:14:50,0.187,0.0,0.136,0.003
29/09/2023,08:15:50,0.193,0.0,0.139,0.003
29/09/2023,08:16:50,0.195,0.0,0.142,0.003
29/09/2023,08:17:50,0.198,0.0,0.145,0.003
29/09/2023,08:18:50,0.201,0.0,0.149,0.004
29/09/2023,08:19:50,0.204,0.0,0.152,0.003
29/09/2023,08:20:50,0.208,0.0,0.155,0.003
29/09/2023,08:21:50,0.210,0.0,0.159,0.004
29/09/2023,08:22:50,0.213,0.0,0.162,0.003
29/09/2023,08:23:50,0.217,0.0,0.166,0.004
29/09/2023,08:24:50,0.218,1.0,0.17,0.004
29/09/2023,08:25:50,0.221,1.0,0.173,0.003
29/09/2023,08:26:50,0.224,1.0,0.177,0.004
29/09/2023,08:27:50,0.228,1.0,0.181,0.004
29/09/2023,08:28:50,0.231,1.0,0.185,0.004
29/09/2023,08:29:50,0.234,1.0,0.188,0.003
29/09/2023,08:30:50,0.236,1.0,0.192,0.004
29/09/2023,08:31:50,0.240,1.0,0.196,0.004
29/09/2023,08:32:50,0.244,1.0,0.2,0.004
29/09/2023,08:33:50,0.248,1.0,0.204,0.004
29/09/2023,08:34:50,0.251,1.0,0.209,0.005
29/09/2023,08:35:50,0.255,1.0,0.213,0.004
29/09/2023,08:36:50,0.258,1.0,0.217,0.004
29/09/2023,08:37:50,0.262,1.0,0.221,0.004
29/09/2023,08:38:50,0.264,1.0,0.226,0.005
29/09/2023,08:39:50,0.268,1.0,0.23,0.004
29/09/2023,08:40:50,0.271,1.0,0.235,0.005
29/09/2023,08:41:50,0.276,1.0,0.239,0.004
29/09/2023,08:42:50,0.279,1.0,0.244,0.005
29/09/2023,08:43:50,0.281,1.0,0.249,0.005
29/09/2023,08:44:50,0.286,1.0,0.253,0.004
29/09/2023,08:45:50,0.293,1.0,0.258,0.005
29/09/2023,08:46:50,0.297,1.0,0.263,0.005
29/09/2023,08:47:50,0.302,1.0,0.268,0.005
29/09/2023,08:48:50,0.305,1.0,0.273,0.005
29/09/2023,08:49:50,0.309,1.0,0.278,0.005
29/09/2023,08:50:50,0.312,1.0,0.283,0.005
29/09/2023,08:51:50,0.318,1.0,0.289,0.006
29/09/2023,11:33:20,0.878,2.0,2.022,1.733
29/09/2023,11:35:00,0.884,2.0,2.046,0.024
29/09/2023,11:35:48,0.885,2.0,2.058,0.012
29/09/2023,11:36:48,0.881,2.0,2.073,0.015
29/09/2023,11:37:48,0.879,2.0,2.087,0.014
29/09/2023,11:38:49,0.883,2.0,2.102,0.015
29/09/2023,11:39:48,0.858,2.0,2.117,0.015
29/09/2023,11:40:48,0.814,2.0,2.129,0.012
29/09/2023,11:41:48,0.876,2.0,2.144,0.015
29/09/2023,11:42:49,0.864,2.0,2.158,0.014
29/09/2023,11:43:48,0.875,2.0,2.172,0.014
29/09/2023,11:44:49,0.877,2.0,2.186,0.014
29/09/2023,11:45:48,0.881,2.0,2.201,0.015
29/09/2023,11:46:49,0.878,2.0,2.216,0.015
29/09/2023,11:47:48,0.874,2.0,2.23,0.014
29/09/2023,11:48:49,0.613,1.0,2.242,0.012
29/09/2023,11:49:48,0.886,2.0,2.254,0.012
29/09/2023,11:50:49,0.878,2.0,2.268,0.014
29/09/2023,11:51:48,0.880,2.0,2.282,0.014
29/09/2023,11:52:49,0.882,2.0,2.297,0.015
29/09/2023,11:53:49,0.882,2.0,2.312,0.015
29/09/2023,11:54:48,0.881,2.0,2.326,0.014
29/09/2023,11:55:48,0.880,2.0,2.341,0.015
29/09/2023,11:56:49,0.880,2.0,2.356,0.015
29/09/2023,11:57:48,0.881,2.0,2.37,0.014
29/09/2023,11:58:49,0.880,2.0,2.385,0.015
29/09/2023,11:59:48,0.881,2.0,2.4,0.015
29/09/2023,12:00:48,0.881,2.0,2.414,0.014
29/09/2023,12:01:48,0.888,2.0,2.429,0.015
29/09/2023,12:02:48,0.889,2.0,2.444,0.015
29/09/2023,12:03:48,0.893,2.0,2.459,0.015
29/09/2023,12:04:48,0.896,2.0,2.474,0.015
29/09/2023,12:05:49,0.900,2.0,2.489,0.015
29/09/2023,12:06:49,0.900,2.0,2.504,0.015
29/09/2023,12:07:48,0.898,2.0,2.519,0.015
29/09/2023,12:08:48,0.903,2.0,2.534,0.015
29/09/2023,12:09:49,0.905,2.0,2.549,0.015
29/09/2023,12:10:48,0.908,2.0,2.564,0.015
29/09/2023,12:11:49,0.912,2.0,2.579,0.015
29/09/2023,12:12:49,0.917,2.0,2.595,0.016
29/09/2023,12:13:49,0.917,2.0,2.61,0.015
29/09/2023,12:14:48,0.911,2.0,2.625,0.015
29/09/2023,12:15:48,0.910,2.0,2.64,0.015
29/09/2023,12:16:49,0.913,2.0,2.655,0.015
29/09/2023,12:17:48,0.910,2.0,2.67,0.015
29/09/2023,12:18:49,0.865,2.0,2.685,0.015
29/09/2023,12:19:48,0.910,2.0,2.699,0.014
29/09/2023,12:20:49,0.905,2.0,2.712,0.013
29/09/2023,12:21:48,0.897,2.0,2.727,0.015
29/09/2023,12:22:48,0.616,1.0,2.739,0.012
29/09/2023,12:23:49,0.588,1.0,2.749,0.01
29/09/2023,12:24:48,0.811,2.0,2.759,0.01
29/09/2023,12:25:49,0.875,2.0,2.772,0.013
29/09/2023,12:26:48,0.650,1.0,2.785,0.013
29/09/2023,12:27:49,0.901,2.0,2.798,0.013
29/09/2023,12:28:48,0.889,2.0,2.813,0.015
29/09/2023,12:29:49,0.883,2.0,2.827,0.014
29/09/2023,12:30:48,0.874,2.0,2.842,0.015
29/09/2023,12:31:49,0.875,2.0,2.856,0.014
29/09/2023,12:32:48,0.813,2.0,2.869,0.013
29/09/2023,12:33:48,0.729,2.0,2.883,0.014
29/09/2023,12:34:48,0.867,2.0,2.898,0.015
29/09/2023,12:35:48,0.867,2.0,2.912,0.014
29/09/2023,12:36:48,0.815,2.0,2.926,0.014
29/09/2023,12:37:48,0.830,2.0,2.94,0.014
29/09/2023,12:38:48,0.595,1.0,2.952,0.012
29/09/2023,12:39:48,0.860,2.0,2.963,0.011
29/09/2023,12:40:49,0.854,2.0,2.975,0.012
29/09/2023,12:41:48,0.660,2.0,2.987,0.012
29/09/2023,12:42:49,0.630,1.0,2.997,0.01
29/09/2023,12:43:48,0.683,2.0,3.007,0.01
29/09/2023,12:44:49,0.626,1.0,3.019,0.012
29/09/2023,12:45:48,0.585,1.0,3.029,0.01
29/09/2023,12:46:49,0.673,2.0,3.039,0.01
29/09/2023,12:47:48,0.566,1.0,3.05,0.011
29/09/2023,12:48:49,0.801,2.0,3.062,0.012
29/09/2023,12:49:48,0.802,2.0,3.075,0.013